sat.trackr.live / text

‹ back to catalog

GAOFEN-12 04

NORAD 57654 · 2023-123A

PAYLOAD ACTIVE UNKNOWN

§ Identity

Operator
Country
PRC
Launch date
2023-08-20
Launch site
JSC
Launch vehicle
Mass (kg)
RCS (m²)

Purposes: earth_obs

External: N2YO · Heavens-Above · Gunter

§ Orbital elements

Epoch: 2026-09-20T00:03:16.267104Z

Period
97.31 min
Inclination
97.9066°
Eccentricity
0.0002866
Mean motion
14.79871642 rev/d
Perigee alt
627.7 km
Apogee alt
631.7 km
Semi-major
7,007.9 km
B*
8.1813e-5
RAAN
179.5717°
Arg perigee
140.7940°
Mean anomaly
219.3480°
Rev number
16,665

§ Raw data

GAOFEN-12 041 57654U 23123A   26263.00227161  .00000565  00000+0  81813-4 0  99962 57654  97.9066 179.5717 0002866 140.7940 219.3480 14.79871642166650

JSON: /api/v1/satellites/57654 · /tle

For live sub-satellite position, see the globe view (requires WebGL).

§ Visibility from observer

Set your observer location to see the next 7 days of passes ≥ 10°. The values pass through the URL so the page stays shareable.

No JS? Fill the form by hand. The geolocation button needs JavaScript.